#timestamp,LO_Frequency,Hit,StdDev 
1530500415.7,286047000.8,N
1530500435.5,286046999.0,N
1530500455.4,286046998.9,N
1530500475.1,286046998.6,N
1530500476.0,286046998.6,N
1530500495.8,286046999.4,N
1530500515.6,286046997.2,N
1530500535.5,286046999.6,N
1530500555.3,286047001.1,N
1530500575.2,286047000.5,N
1530500595.9,286047000.1,N
1530500615.8,286047001.1,N
1530500635.7,286047001.2,N
1530500655.5,286046999.1,N
1530500675.3,286046999.3,N
1530500695.8,286046998.8,N
1530500715.6,286046999.9,N
1530500735.5,286047000.1,N
1530500755.5,286047002.4,N
1530500775.4,286047002.8,N
1530500795.2,286047002.0,N
1530500815.0,286047000.1,N
1530500816.0,286047000.1,N
1530500835.8,286047002.8,N
1530500855.7,286047002.3,N
1530500875.5,286047000.8,N
1530500895.5,286047001.1,N
1530500915.4,286047000.3,N
1530500935.2,286046998.3,N
1530500955.1,286047000.4,N
1530500956.0,286047000.4,N
1530500975.8,286047000.0,N
1530500995.6,286047000.7,N
1530501015.5,286047000.2,N
1530501035.3,286046998.1,N
1530501055.1,286047000.2,N
1530501075.9,286047000.2,N
1530501095.7,286047001.1,N
1530501115.6,286047000.3,N
1530501135.4,286047000.4,N
1530501155.2,286047000.1,N
1530501175.1,286047000.2,N
1530501176.0,286047000.2,N
1530501195.8,286047000.1,N
1530501215.6,286047000.7,N
1530501235.5,286047000.3,N
1530501255.3,286047002.4,N
1530501275.2,286047002.5,N
1530501295.9,286046999.7,N
1530501315.7,286046999.7,N
1530501335.6,286047002.8,N
1530501355.4,286047001.4,N
1530501375.2,286047001.5,N
1530501395.1,286047001.8,N
1530501396.0,286047001.8,N
1530501415.8,286047002.6,N
1530501435.7,286047002.6,N
1530501455.5,286047002.3,N
1530501475.3,286047002.1,N
1530501495.2,286047000.0,N
1530501515.0,286047002.7,N
1530501515.9,286047002.7,N
1530501535.8,286047002.2,N
1530501555.6,286046999.7,N
1530501575.4,286047002.0,N
1530501595.3,286047003.7,Y
1530501615.1,286047000.6,P
1530501635.6,286047002.4,P
1530501655.4,286047002.7,P
1530501675.2,286047001.3,N
1530501695.0,286047002.2,N
1530501695.9,286047002.2,N
1530501715.8,286046999.8,N
1530501735.6,286047000.7,N
1530501755.4,286046999.8,N
1530501775.3,286047000.5,N
1530501795.1,286046999.9,N
1530501815.8,286046998.2,N
1530501835.7,286046998.2,N
1530501855.5,286046998.6,N
1530501875.4,286046998.3,N
1530501895.2,286046998.7,N
1530501915.0,286047000.6,N
1530501915.9,286047000.6,N
1530501935.8,286047000.0,N
1530501955.6,286047002.7,N
1530501975.4,286047000.1,N
1530501995.3,286047000.5,N
1530502015.1,286047001.7,N
1530502035.9,286047001.5,N
1530502055.8,286047002.0,N
1530502075.6,286047002.4,N
1530502095.5,286047002.5,N
1530502115.3,286047002.4,N
1530502135.2,286047001.0,N
1530502155.9,286047000.6,N
1530502175.7,286047002.4,N
1530502195.6,286047001.4,N
1530502215.4,286047002.5,N
1530502235.2,286047002.3,N
1530502255.1,286047000.6,N
1530502256.0,286047000.6,N
1530502275.8,286047002.8,N
1530502295.7,286047003.8,N
1530502315.5,286047001.4,N
1530502335.3,286047003.6,N
1530502355.2,286047001.3,N
1530502375.0,286047004.4,N
1530502375.9,286047004.4,N
1530502395.8,286047005.5,Y
1530502415.6,286047003.4,P
1530502435.4,286047004.2,P
1530502455.3,286047004.1,P
1530502475.1,286047003.8,Y
1530502495.8,286047000.8,P
1530502515.7,286046998.1,N
1530502535.5,286046999.3,N
1530502555.4,286046996.6,N
1530502575.2,286046997.1,N
1530502595.0,286046997.4,N
1530502595.9,286046997.4,N
1530502615.8,286046995.6,N
1530502635.6,286046995.5,N
1530502655.5,286046995.0,N
1530502675.3,286046996.2,N
1530502695.1,286046995.2,N
1530502715.9,286046995.6,N
1530502735.7,286046997.8,N
1530502755.5,286046997.7,N
1530502775.4,286046997.7,N
1530502795.2,286046996.5,N
1530502815.0,286046999.3,N
1530502816.0,286046999.3,N
1530502835.8,286046996.6,N
1530502855.6,286046997.1,N
1530502875.5,286046998.0,N
1530502895.3,286046997.6,N
1530502915.1,286046997.4,N
1530502935.9,286046996.9,N
1530502955.7,286047001.2,N
1530502975.6,286046999.0,N
1530502995.4,286046996.7,N
1530503015.2,286046996.9,N
1530503035.1,286046999.1,N
1530503036.0,286046999.1,N
1530503055.8,286046998.3,N
1530503075.6,286046998.8,N
1530503095.5,286046998.6,N
1530503115.3,286046996.6,N
1530503135.1,286046996.8,N
1530503155.9,286046997.2,N
1530503175.7,286046997.2,N
1530503195.6,286046996.7,N
1530503215.4,286046997.2,N
1530503235.2,286046997.8,N
1530503255.1,286046998.0,N
1530503256.0,286046998.0,N
1530503275.8,286046995.3,Y
1530503295.7,286047000.5,P
1530503315.5,286047000.3,N
1530503335.3,286047002.7,N
1530503355.2,286046999.9,N
1530503375.0,286047001.4,N
1530503375.9,286047001.4,N
1530503395.7,286047001.0,N
1530503415.6,286047002.6,N
1530503435.4,286047001.9,N
1530503455.3,286047000.2,N
1530503475.1,286047001.2,N
1530503495.8,286047001.0,N
1530503515.7,286046998.1,N
1530503535.5,286047002.3,N
1530503555.3,286046999.7,N
1530503575.2,286047000.6,N
1530503595.0,286047000.0,N
1530503595.9,286047000.0,N
1530503615.8,286046999.9,N
1530503635.6,286047000.8,N
1530503655.4,286047000.7,N
1530503675.3,286046999.4,N
1530503695.1,286047001.0,N
1530503715.8,286046998.2,N
1530503735.7,286047000.9,N
1530503755.5,286046998.4,N
1530503775.4,286046998.6,N
1530503795.2,286047001.2,N
1530503815.0,286046998.3,N
1530503815.9,286046998.3,N
1530503835.8,286047001.2,N
1530503855.6,286047002.8,N
1530503875.5,286047000.1,N
1530503895.3,286046998.9,N
1530503915.1,286047011.9,Y
1530503935.9,286047000.5,P
1530503955.7,286047001.5,P
1530503975.5,286047002.8,P
1530503995.4,286047000.2,N
